Вернуться в каталог

O3B FM12

АктивенСвязьMEO
NORAD 40350·PAYLOAD·🇱🇺 Luxembourg

Запущен Dec 18, 2014 с Guiana Space Centre

Loading…

Ближайшие Пролёты (ближайшие 24 часа)

TLE

СвежийSource: CelesTrak SupGP

Эпоха: Sep 14, 2026, 16:00 UTC

1 40350C 14083C   26257.66666667  .00000000  00000+0  00000+0 0  2574
2 40350   0.0534 349.2396 0002442 183.5779  37.2037  5.00116142    17

Отслеживайте O3B FM12 в реальном времени с AllMySat

Download on the App Store